Location: Round Knob
(37.2473°N, 88.7376°W)
Time: 15:17:00
(UTC+00:00)

OAO 3 Rocket - Pass Details

Date: 29 October 2020
Orbit: 629 x 682 km, 35.0° (Epoch: 03 December)

Event Time Altitude Azimuth Distance (km) Brightness Sun altitude
Rises 23:20:35 0° 275° (W) 2,997 8.3 -4.8°
Reaches altitude 10° 23:23:04 10° 268° (W) 2,075 7.5 -5.3°
Maximum altitude 23:27:36 40° 199° (SSW) 953 4.4 -6.2°
Drops below altitude 10° 23:32:03 10° 129° (SE) 2,037 5.4 -7.1°
Sets 23:34:29 0° 122° (ESE) 2,936 6.1 -7.5°
Enters shadow 23:34:30 - 122° (ESE) 2,942 6.1 -7.5°
